Theta_e
314 315 315 316 316 316 317 317 317 315 314 313 314 313 310 311 313 316 322 321 320 318 321 323 328 330 327 328 329 334 335 338 339 343 344 337 335 334 334 336 338 337 340 343 342
314 315 315 315 316 317 317 317 317 316 315 314 314 315 313 311 318 324 325 322 319 315 320 325 329 327 326 328 329 333 336 338 333 334 335 333 335 335 335 337 341 342 341 342 340
314 314 314 315 316 317 317 317 316 316 316 315 315 314 314 314 330 332 324 322 320 315 319 327 326 326 326 328 330 333 336 336 332 330 331 332 333 333 335 337 339 345 343 341 340
313 314 314 315 316 317 317 317 317 317 315 315 315 315 313 323 337 324 320 319 316 315 321 325 326 325 325 328 331 332 333 334 332 331 330 330 330 332 333 335 336 343 341 339 339
313 314 314 314 316 317 317 318 317 316 316 316 316 315 317 330 332 315 314 313 314 317 323 325 324 325 325 328 330 331 331 332 331 330 330 330 329 329 331 335 338 342 340 338 337
313 313 313 314 315 317 318 317 318 316 316 314 315 313 322 330 327 315 318 318 319 322 324 324 324 325 325 327 329 331 330 331 331 330 331 330 329 330 330 335 336 342 340 337 335
312 312 313 314 316 317 318 318 318 316 316 313 313 316 329 330 328 321 320 320 322 321 322 322 324 324 325 326 328 328 329 329 329 330 330 331 331 331 331 334 334 340 342 340 337
312 312 313 314 316 317 318 318 317 317 316 314 315 324 334 325 329 324 322 321 321 320 321 322 323 325 325 326 326 326 327 328 330 332 332 331 333 333 332 334 335 338 339 341 340
312 313 313 314 316 318 318 318 316 318 317 317 327 330 329 322 329 327 323 322 321 320 320 321 322 323 324 324 324 325 324 325 326 329 331 332 334 333 334 334 336 337 339 339 341
312 313 313 315 317 318 319 321 321 317 323 324 326 329 328 323 328 326 323 323 322 321 321 321 322 322 323 324 323 323 325 325 325 327 331 329 329 333 335 336 336 335 337 340 340
311 312 312 315 318 318 320 324 327 330 326 331 326 327 324 323 328 325 323 323 322 320 320 322 321 322 323 324 324 324 324 325 327 327 327 327 327 328 329 330 330 331 332 335 340
310 310 311 314 318 319 320 328 323 322 324 326 326 324 325 328 328 327 324 322 321 319 321 324 322 324 325 325 325 324 324 324 325 325 325 325 325 327 327 328 329 329 330 331 337
309 309 310 315 319 322 325 325 323 323 325 330 325 324 323 324 327 327 325 323 322 320 321 324 326 325 324 324 324 323 323 323 324 325 326 326 325 325 326 327 329 329 330 330 331
308 309 310 315 320 324 326 325 324 322 328 329 325 324 323 323 325 327 326 325 326 325 325 325 326 325 324 323 324 323 324 324 324 325 326 327 327 329 329 327 327 328 329 330 333
306 308 309 311 316 323 324 323 324 323 336 328 327 324 324 323 327 326 327 326 328 327 327 326 326 325 324 323 324 323 326 326 326 326 327 327 327 328 328 328 328 329 329 332 332
306 308 310 319 318 323 323 323 325 327 327 328 326 323 323 324 326 326 327 327 329 328 329 327 328 325 325 324 324 325 325 326 326 326 327 327 328 328 329 329 329 332 333 333 333
306 309 312 314 324 324 324 326 331 326 327 328 326 324 323 324 325 325 325 328 328 328 329 329 327 327 325 325 325 325 326 327 329 329 329 332 328 330 331 331 332 334 336 337 337
307 311 319 318 323 323 325 329 332 329 325 326 326 325 323 325 325 324 326 327 327 328 329 331 330 328 327 326 326 327 327 328 333 331 331 333 332 331 333 331 334 339 339 338 338
309 317 323 325 323 323 328 331 329 327 326 325 325 326 326 325 324 324 325 327 328 328 329 331 329 328 327 327 327 328 329 329 330 331 331 330 330 335 335 336 338 340 339 338 336
311 319 324 326 324 326 330 330 329 328 325 325 326 325 326 326 324 326 326 326 330 330 330 331 333 328 328 327 327 327 328 329 331 334 335 332 335 336 338 340 339 339 338 336 335
316 327 326 325 325 328 331 329 327 326 326 326 326 326 326 327 327 325 326 329 329 330 329 328 330 331 327 327 327 328 328 330 330 331 333 333 335 344 344 342 341 338 336 335 333
317 327 323 323 328 329 331 330 321 327 326 325 326 329 329 329 327 326 333 332 329 330 330 333 334 333 329 329 328 328 329 330 332 332 330 331 333 340 340 339 338 337 335 333 332
319 321 320 321 328 331 332 329 328 327 326 327 326 327 329 330 329 328 332 328 327 329 335 337 333 332 331 330 330 329 331 331 333 335 336 336 332 338 337 338 336 336 334 333 332
319 324 324 324 323 327 333 331 328 325 325 327 329 329 330 331 329 329 330 329 327 328 327 333 333 333 332 332 330 333 334 333 334 335 333 333 333 332 338 337 335 332 330 329 328
321 324 326 329 328 327 327 328 329 327 324 325 327 328 330 333 331 330 330 330 327 326 327 332 334 331 331 331 331 331 330 330 330 329 329 328 327 327 334 332 331 330 328 326 323
323 324 324 325 323 326 323 326 326 326 327 327 326 329 327 331 334 336 334 332 333 330 330 334 335 331 330 328 326 325 325 324 323 322 323 322 322 329 327 324 323 323 322 321 320
316 318 319 319 322 325 322 322 324 324 325 325 327 328 328 329 328 327 327 329 331 330 330 331 331 332 331 326 325 325 324 323 323 324 327 327 327 325 323 321 320 320 320 321 320
Wind_Speed
22 23 23 24 25 26 26 27 27 21 18 14 14 13 12 11 10 8 11 8 17 7 11 10 14 17 16 17 18 17 12 6 14 23 26 7 13 13 3 12 14 12 13 18 22
23 23 25 25 26 27 27 30 25 20 18 15 15 13 12 11 10 16 13 10 10 9 14 17 14 16 12 14 15 11 12 15 11 10 9 9 10 10 7 12 17 15 16 21 22
24 25 26 27 27 28 28 32 23 21 19 15 14 13 9 6 9 5 16 13 12 13 17 17 16 13 14 17 15 16 12 14 8 10 10 9 3 3 3 4 15 19 17 17 20
25 26 28 28 28 29 29 31 22 22 18 14 11 11 5 2 3 5 10 11 12 14 15 19 16 14 14 17 17 14 14 8 3 7 4 3 6 0 2 4 12 20 18 17 17
26 27 29 29 29 29 31 28 22 20 16 11 9 7 2 8 4 10 12 13 14 13 16 15 16 14 15 18 16 17 12 12 5 5 8 4 7 6 9 10 17 19 17 16 16
28 28 31 31 31 30 33 23 22 17 12 9 5 5 5 11 10 14 14 15 13 15 18 17 13 15 17 19 18 10 12 15 11 10 12 9 11 9 8 11 13 18 16 15 16
28 30 33 32 31 30 33 22 22 12 8 4 2 2 10 7 15 14 15 14 13 16 13 15 17 14 11 14 11 15 11 12 14 15 15 9 8 13 10 15 12 16 16 16 15
29 33 34 33 31 31 29 24 18 7 3 2 3 4 8 5 8 13 14 12 10 10 11 10 7 12 13 14 19 11 12 16 17 18 17 6 13 20 15 14 14 15 14 16 16
30 33 35 33 31 33 25 23 9 3 2 3 4 6 9 8 11 13 14 12 8 7 9 7 7 13 15 13 13 13 14 19 20 18 15 12 12 16 12 13 11 15 14 15 17
31 34 36 33 30 31 23 16 7 5 5 7 13 9 11 10 14 12 13 11 8 8 9 9 8 12 14 13 12 17 18 15 13 18 11 9 16 13 11 19 13 10 12 15 16
32 35 37 33 29 23 25 8 4 6 11 12 10 10 6 13 13 12 11 9 10 8 12 13 11 13 17 18 17 20 14 15 14 7 9 5 9 16 15 13 14 10 11 12 16
33 35 37 32 30 14 15 6 6 8 10 16 17 12 1 10 10 13 13 11 12 11 13 10 13 16 15 13 7 11 11 14 15 14 13 16 16 15 15 18 12 11 8 10 11
34 35 39 31 24 10 10 4 8 9 6 11 12 14 12 9 13 15 16 15 11 13 14 16 14 10 7 6 6 12 12 13 13 12 11 11 15 16 17 19 12 14 6 7 10
35 36 39 34 9 13 9 4 8 5 4 11 12 8 14 13 13 18 18 13 10 13 15 11 14 7 6 10 10 11 14 14 11 12 9 12 14 14 19 17 15 14 5 12 6
36 37 35 18 15 9 8 9 9 4 5 16 12 10 12 14 10 11 19 17 17 10 7 12 12 9 8 11 9 11 8 9 7 9 12 15 9 12 1 17 11 10 2 13 14
37 37 32 2 7 12 11 11 8 5 8 9 9 11 16 18 8 14 14 15 11 15 11 15 4 4 10 11 11 8 4 8 11 11 12 16 12 12 1 8 8 18 16 13 14
40 33 22 11 6 9 11 7 5 8 3 11 11 15 17 15 14 10 15 15 12 10 15 16 16 13 7 10 10 8 9 8 9 10 12 9 13 12 8 13 17 17 16 14 14
40 28 10 12 8 10 9 6 8 13 10 6 4 12 15 16 16 13 13 13 16 18 15 12 14 17 13 8 8 14 11 9 13 12 8 11 7 9 16 15 17 18 15 13 13
36 14 9 8 7 6 7 9 9 10 13 4 10 9 12 17 10 14 14 14 18 16 9 7 4 12 6 3 7 7 11 13 11 12 11 9 11 20 18 18 17 16 14 12 11
24 15 16 8 5 6 6 14 15 7 6 6 12 13 14 15 12 9 14 12 7 8 5 5 6 7 10 1 9 10 9 5 6 8 10 10 6 5 11 14 13 13 12 10 10
7 5 8 4 7 6 8 15 11 5 5 7 11 17 11 11 18 16 9 9 4 6 4 8 3 13 6 6 12 6 9 7 8 7 8 9 3 9 12 12 13 11 10 9 8
7 5 7 4 7 8 11 10 6 6 3 8 7 13 10 13 7 7 12 8 5 4 2 5 2 9 15 16 14 8 10 10 7 9 9 10 8 11 11 10 10 9 7 6 6
6 9 13 6 7 9 13 6 2 5 7 5 6 8 7 9 4 11 13 7 5 3 5 5 5 7 12 13 15 9 6 8 7 3 9 10 9 10 9 14 9 8 8 6 6
5 5 6 6 11 12 13 4 9 4 9 4 10 5 9 8 12 7 8 5 3 10 4 4 4 7 10 17 13 11 13 8 10 7 10 12 15 11 11 10 5 6 8 12 12
4 3 5 6 3 8 7 11 10 7 7 3 8 10 9 9 12 12 9 12 5 6 2 1 6 10 14 15 17 15 16 16 17 16 15 16 17 13 13 10 10 9 9 11 13
5 5 7 11 12 10 8 9 12 8 1 5 7 10 4 5 8 12 11 6 6 12 6 7 5 8 13 14 16 19 19 19 19 17 17 16 15 12 13 14 14 15 15 15 13
19 13 5 8 10 7 11 10 11 8 4 6 9 8 4 10 11 8 8 7 7 4 2 5 5 7 12 13 15 15 14 11 10 17 5 6 10 11 10 12 13 16 16 16 16
Wind_Direction
357 354 352 350 345 343 340 337 332 328 324 318 315 307 300 300 296 268 248 245 203 218 180 193 218 242 245 253 248 263 273 277 233 124 230 169 121 96 91 114 73 63 98 131 141
354 352 351 347 343 341 337 337 332 327 323 314 314 305 289 302 285 257 238 209 189 201 190 208 212 223 229 243 245 231 261 261 25 25 90 87 69 127 194 157 126 107 106 128 150
353 350 349 347 342 339 335 338 332 327 321 309 307 303 284 308 278 177 194 202 221 211 205 216 232 222 239 246 236 227 263 312 100 27 342 64 177 55 83 248 153 134 135 145 156
352 349 347 345 340 337 336 338 331 328 325 310 300 294 260 268 331 118 175 188 195 195 222 249 245 238 246 251 245 236 268 296 44 140 240 311 24 292 163 2 98 127 143 152 162
351 347 347 344 339 337 337 335 332 328 326 314 299 271 195 229 229 141 150 162 175 188 220 232 233 244 241 252 250 239 266 284 224 231 232 65 263 211 281 140 116 128 150 159 166
349 347 344 342 340 338 336 333 331 326 323 317 287 219 250 255 105 147 148 162 177 201 226 231 233 240 261 264 277 251 245 264 294 233 250 207 240 220 222 136 131 142 164 168 170
348 345 344 342 339 336 335 330 325 323 319 323 233 219 260 282 142 160 162 178 210 216 232 234 250 280 261 274 284 280 288 269 256 255 248 247 273 259 263 151 156 155 171 172 177
347 344 343 340 338 335 331 326 319 310 295 248 251 247 284 144 186 165 181 199 224 226 267 248 259 281 270 283 283 274 261 262 261 246 246 194 272 278 194 155 168 172 175 174 176
344 342 341 339 336 334 325 321 307 284 231 241 276 223 250 164 192 181 188 203 194 224 235 305 273 251 258 242 262 242 250 239 246 251 223 195 246 271 152 170 207 182 184 180 174
343 341 339 336 334 333 320 322 275 254 254 254 271 267 229 198 183 171 193 204 195 211 220 222 228 239 236 258 239 247 226 231 254 266 188 230 271 249 210 232 197 207 207 188 180
340 339 337 333 331 329 321 319 223 203 228 255 139 252 151 172 153 188 193 211 200 211 222 201 224 228 228 225 246 271 307 303 308 322 312 239 277 294 296 274 269 188 227 220 183
338 338 336 331 329 312 301 291 29 328 296 266 248 235 246 152 181 190 183 198 199 217 217 205 229 250 237 256 338 314 297 276 291 302 299 290 276 258 262 269 266 274 269 258 196
338 338 337 328 326 289 289 2 318 319 267 252 201 218 200 215 211 189 185 218 190 218 209 244 239 204 309 288 247 264 265 281 268 286 290 278 261 259 254 262 243 267 230 321 308
337 337 338 331 314 317 295 337 328 351 276 197 193 213 181 206 233 189 186 215 223 234 242 225 260 229 226 248 254 251 239 231 267 278 272 285 303 244 218 222 238 243 210 239 354
336 336 332 332 299 289 352 322 330 263 280 144 161 128 174 201 211 200 177 220 253 224 259 238 224 253 245 251 228 258 346 337 292 282 288 279 264 270 288 183 198 173 183 65 47
332 333 329 5 260 264 306 311 286 236 247 149 140 191 178 214 213 172 181 221 251 258 249 261 260 280 249 225 243 289 282 259 262 256 254 250 253 277 81 165 130 78 77 65 70
329 328 312 275 260 322 311 271 239 247 117 155 172 180 187 195 220 173 195 200 224 216 238 224 236 219 216 260 197 206 248 257 235 226 240 303 215 240 77 89 86 90 80 59 59
327 326 298 249 276 284 283 235 245 262 230 68 157 174 196 200 217 187 192 218 219 258 279 235 201 194 180 228 245 201 226 256 298 307 339 201 252 253 107 116 102 95 88 82 63
329 326 256 262 227 263 254 227 234 263 351 129 202 241 223 233 202 190 224 211 213 205 256 320 140 87 119 201 239 252 240 233 278 293 282 288 287 13 83 86 86 90 82 74 80
326 302 259 170 203 246 246 248 277 332 334 326 284 204 232 219 182 228 207 235 118 35 19 323 313 171 142 192 261 273 302 301 246 254 268 277 39 82 109 110 107 96 87 70 55
302 276 120 206 192 237 241 244 265 115 3 286 275 290 266 259 201 227 232 97 70 122 298 287 295 284 240 219 247 218 215 242 259 279 313 309 61 102 75 103 102 93 74 66 44
303 275 123 201 232 231 239 251 336 287 184 272 268 297 309 314 297 225 65 67 54 3 243 47 316 278 277 308 325 306 300 307 294 276 280 292 300 102 120 100 101 96 79 56 50
300 293 271 226 252 244 248 240 229 284 267 270 243 252 314 291 294 268 98 85 63 60 33 22 219 254 259 253 253 250 288 266 273 274 268 279 282 136 129 121 74 48 35 1 14
284 290 201 208 263 290 295 280 229 173 294 278 289 355 275 244 256 267 129 109 82 76 17 323 277 268 277 302 323 284 281 232 237 253 274 269 283 294 90 95 88 46 13 1 359
247 290 15 295 4 322 294 300 302 207 202 221 254 247 240 247 238 216 263 116 160 136 209 320 258 261 268 275 287 293 288 285 281 279 271 273 282 314 47 32 35 36 16 350 344
301 346 353 301 292 299 284 268 258 262 120 243 240 299 254 255 314 8 355 186 184 159 228 141 274 291 277 280 276 270 266 264 263 270 273 271 272 44 35 21 12 356 346 332 339
4 322 259 289 287 259 259 254 258 277 82 308 329 327 220 22 1 7 353 352 1 341 193 235 263 286 272 292 299 275 269 276 277 251 335 296 46 56 20 8 354 344 340 18 359